Location: Cicognara
(44.9500°N, 10.4667°E)
Time: 06:53:39
(UTC+00:00)

Lacrosse 4 Rocket - Pass Details

Date: 24 October 2021
Orbit: 537 x 619 km, 68.0° (Epoch: 01 December)

Event Time Altitude Azimuth Distance (km) Brightness Sun altitude
Rises 19:06:47 0° 311° (NW) 2,828 5.8 -30.3°
Reaches altitude 10° 19:09:54 10° 287° (WNW) 1,939 5.0 -30.9°
Maximum altitude 19:12:14 14° 255° (WSW) 1,680 4.4 -31.3°
Drops below altitude 10° 19:14:35 10° 222° (SW) 1,953 4.4 -31.7°
Enters shadow 19:14:51 - 219° (SW) 2,011 4.4 -31.7°
